STARLINK-32961, 63122

Orbit data source: Space-Track

STARLINK-32961, 63122 is a payload satellite owned by SpaceX/Seattle (US) in LEO that was launched on Thu, 27 Feb 2025 UTC via an FALCON 9 launch vehicle from the Air Force Eastern Test Range (AFETR). Payload-class satellites include a variety of spacecraft equipped with specific instruments for various scientific and technological missions. These include communications satellites like Starlink; space stations such as the ISS; scientific satellites like the Hubble; Earth observation satellites from companies like Planet Labs, Umbra, and HawkEye 360; GPS; miniature CubeSats for education and research; and military/defense satellites.

Loading next visibility...
Identifier
63122, 2025-039U
Orbit
LEO
Country
Flag of USUS
Related business
Manufacturer
SpaceX/Seattle
Mission
Operational Commercial Communications
Bus & Motor
STARLINK V2M, Unknown motor
Mass
730 kg wet, ~700 kg dry
Launch date (UTC)
2025-02-27 (11 months ago)
Launch vehicle
FALCON 9
Launch site
Air Force Eastern Test Range (AFETR)
Object type
Payload
Rocket body
Debris
Shape & HBR
Box + 2 Pan, 17.7 m
Radar Cross Section
33.884 m², Large (>1 m²)

Expand to show TLE details & history
Last TLE update: 1 day ago

TLE from 1 day ago
0 STARLINK-32961
1 63122U 25039U   26034.47764058  .00036144  00000-0  13153-2 0  9992
2 63122  42.9970 206.0666 0002426 288.1440  71.9147 15.27609831 52833
Epoch: 2026-02-03T11:27Z
TLE epoch observation values (Epoch: 2026-02-03T11:27:48.146Z)
Latitude
-0.00002°
Longitude
-99.54204°
Altitude
482.219 km
Speed
7.626 km/s
True Right ascension
13h 44m 15s
True Declination
0° 00' 00"
Sunlit
Object was in daylight at epoch
Visualization orbit readout
Latitude
Unknown
Longitude
Unknown
Altitude
Unknown
Speed
Unknown
Apparent Right ascension
Unknown
Apparent Declination
Unknown
Sunlit
N/A
Visualization observer readout
Local Sidereal Time
17:33:30
Azimuth
Unknown
Elevation
Unknown
Doppler factor
Unknown
Orbital elements
Apogee altitude
486.57 km
Perigee altitude
483.241 km
Semi-major axis
6,863.042 km
Eccentricity
0.00024
Inclination
42.997°
RAAN
206.0666°
Arg. of periapsis
288.144°
True anomaly
71.94113°
Mean anomaly
71.9147°
Eccentric anomaly
71.92791°
Mean motion
3.8174 °/min
Orbital period
94.3 mins
BSTAR
0.0013153
Loading maneuver chart data...
Computing Atmospheric mass density...
Loading historical data...
Loading historical data...
Loading historical data...
Loading historical data...
Loading historical data...
Loading historical data...
Loading historical data...

Documentation

Showing up to 5 results
|